Iliamna, AK

2:45 AM AKDT on May 28, 2017 (GMT -0800)
Iliamna

Weather History for PAIL - August, 2013

Change the Weather History Date:

Monday, August 5, 2013

  Actual Average Record
Temperature  
Mean Temperature 56 °F -  
Max Temperature 57 °F 64 °F 82 °F (1968)
Min Temperature 54 °F 51 °F 42 °F (2011)
Degree Days  
Heating Degree Days 10    
Growing Degree Days 6 (Base 50)    
Moisture  
Dew Point 52 °F    
Average Humidity 86    
Maximum Humidity 93    
Minimum Humidity 78    
Precipitation  
Precipitation 0.24 in - - ()
Sea Level Pressure  
Sea Level Pressure 29.89 in    
Wind  
Wind Speed 13 mph (East)    
Max Wind Speed 18 mph    
Max Gust Speed 25 mph    
Visibility 10 miles    
Events Rain    
Averages and records for this station are not official NWS values.
T = Trace of Precipitation, MM = Missing Value Source: NWS Daily Summary

Daily Weather History Graph

Daily Weather History Graph

Search for Another Location

Airport or City:

Trip Planner

Search our weather history database for the weather conditions in past years. The results will help you decide how hot, cold, wet, or windy it might be!

Date:

Astronomy

Aug. 05, 2013 Rise Set
Actual Time 6:12 AM AKDT 10:36 PM AKDT
Civil Twilight 5:16 AM AKDT 11:32 PM AKDT
Nautical Twilight 3:38 AM AKDT 1:07 AM AKDT
Astronomical Twilight Sun does not set Sun does not set
Moon 5:24 AM AKDT (8/5) 9:28 PM AKDT (8/5)
Length of Visible Light 18h 16m
Length of Day
16h 24m
Waning Crescent, 1% of the Moon is Illuminated
Aug 5
Waning Crescent
Aug 6
New
Aug 14
First Quarter
Aug 20
Full
Aug 28
Last Quarter

Hourly Weather History & Observations

Time (AKDT) Temp. Dew Point Humidity Pressure Visibility Wind Dir Wind Speed Gust Speed Precip Events Conditions
12:53 AM 55.9 °F 51.1 °F 84% 29.93 in 10.0 mi East 13.8 mph - N/A   Overcast
1:53 AM 55.9 °F 51.1 °F 84% 29.92 in 10.0 mi East 13.8 mph - N/A   Overcast
2:27 AM 55.4 °F 51.8 °F 88% 29.91 in 10.0 mi East 6.9 mph - N/A   Overcast
2:53 AM 55.9 °F 51.1 °F 84% 29.91 in 10.0 mi ESE 10.4 mph - N/A   Overcast
3:53 AM 55.9 °F 51.1 °F 84% 29.90 in 10.0 mi ESE 13.8 mph 20.7 mph N/A   Overcast
4:02 AM 55.4 °F 50.0 °F 82% 29.90 in 10.0 mi ESE 12.7 mph - N/A   Overcast
4:53 AM 55.9 °F 50.0 °F 80% 29.89 in 10.0 mi East 16.1 mph 21.9 mph N/A   Overcast
5:53 AM 55.0 °F 51.1 °F 86% 29.89 in 10.0 mi East 9.2 mph - 0.01 in   Overcast
6:36 AM 55.4 °F 51.8 °F 88% 29.88 in 10.0 mi East 17.3 mph 23.0 mph N/A   Overcast
6:53 AM 55.9 °F 51.1 °F 84% 29.88 in 10.0 mi East 18.4 mph 25.3 mph N/A   Overcast
7:53 AM 55.9 °F 51.1 °F 84% 29.88 in 10.0 mi East 13.8 mph 20.7 mph 0.00 in Rain Light Rain
8:53 AM 55.0 °F 52.0 °F 89% 29.88 in 7.0 mi East 12.7 mph - 0.01 in Rain Light Rain
9:53 AM 55.0 °F 52.0 °F 89% 29.88 in 10.0 mi East 13.8 mph - 0.06 in Rain Light Rain
10:05 AM 55.4 °F 51.8 °F 88% 29.88 in 10.0 mi East 17.3 mph 21.9 mph 0.00 in Rain Light Rain
10:53 AM 55.9 °F 52.0 °F 87% 29.90 in 10.0 mi East 12.7 mph 20.7 mph 0.01 in Rain Light Rain
11:53 AM 55.9 °F 52.0 °F 87% 29.89 in 10.0 mi East 16.1 mph 24.2 mph 0.03 in Rain Light Rain
12:53 PM 55.9 °F 52.0 °F 87% 29.90 in 9.0 mi East 12.7 mph - 0.04 in Rain Light Rain
1:53 PM 55.9 °F 52.0 °F 87% 29.90 in 10.0 mi East 15.0 mph - 0.07 in Rain Light Rain
2:53 PM 57.0 °F 54.0 °F 89% 29.89 in 10.0 mi East 15.0 mph 20.7 mph 0.02 in Rain Light Rain
3:53 PM 57.0 °F 54.0 °F 89% 29.88 in 9.0 mi East 15.0 mph 19.6 mph 0.01 in Rain Light Rain
4:53 PM 55.9 °F 54.0 °F 93% 29.88 in 5.0 mi East 11.5 mph - 0.04 in Rain Rain
5:53 PM 55.9 °F 53.1 °F 90% 29.88 in 6.0 mi East 11.5 mph 19.6 mph 0.06 in Rain Rain
6:53 PM 55.9 °F 53.1 °F 90% 29.88 in 10.0 mi East 10.4 mph - 0.05 in Rain Light Rain
7:53 PM 55.9 °F 53.1 °F 90% 29.87 in 10.0 mi East 12.7 mph - 0.04 in Rain Light Rain
8:53 PM 55.9 °F 52.0 °F 87% 29.87 in 10.0 mi East 15.0 mph - 0.02 in Rain Light Rain
9:53 PM 55.0 °F 51.1 °F 86% 29.87 in 10.0 mi East 16.1 mph 23.0 mph 0.01 in Rain Light Rain
10:53 PM 55.0 °F 51.1 °F 86% 29.86 in 10.0 mi East 15.0 mph - 0.00 in   Overcast
11:53 PM 54.0 °F 51.1 °F 90% 29.86 in 10.0 mi East 10.4 mph - 0.00 in   Overcast